Retour au catalogue

SL-8 DEB

ActifLEO
NORAD 17842·DEBRIS·🇷🇺 Russia

Lancé Apr 17, 1986 depuis Plesetsk Cosmodrome

Loading…

Prochains Passages (prochaines 24 heures)

TLE

FraisSource: Space-Track

Époque: Sep 14, 2026, 14:18 UTC

1 17842U 86030C   26257.59630292  .00000891  00000-0  23605-3 0  9994
2 17842  74.0197  61.9165 0015504 174.0283 304.0020 14.50188264 79228

Suivez SL-8 DEB en temps réel avec AllMySat

Download on the App Store